Погода в Караульной Горе

Россия / Республика Татарстан     54°32′03″N   50°40′40″E
темп.,
°C
ветер,
м/с
пор.,
м/с
влажн.,
%
обл.,
%
осадки,
мм/ч
давл.,
гПа
погр.,
м
28 сентября, вт
вт2800:00+4всв61088100 0.1 1019902
03:00+4св61076100 0.1 10201058
06:00+2св612815 0.0 1022500
09:00+5св8106611 0.0 1023869
12:00+8св78485 0.0 10241350
15:00+8св7846100 0.0 10241488
18:00+6с5105697 0.0 1026348
21:00+4с41069100 0.0 1027239
29 сентября, ср
ср2900:00+3ссв4972100 0.0 1027243
03:00+2ссв397919 0.0 1028189
06:00+1ссв36825 0.0 1029125
09:00+6ссв45605 0.0 1030608
12:00+9ссв464620 0.0 10291535
15:00+9ссв564323 0.0 10291674
18:00+5ссв33615 0.0 103032
21:00+3ссв22675 0.0 103015
30 сентября, чт
чт3000:00+2ссв22715 0.0 103110
03:00+2с11745 0.0 103110
06:00+1с11775 0.0 103210
09:00+6с22575 0.0 1032414
12:00+9с234730 0.0 10321435
15:00+9ссз3355100 0.0 10311159
18:00+6сз227467 0.0 103130
21:00+5зсз228872 0.0 103211
1 октября, пт
пт100:00+6зюз2481100 0.0 1031115
03:00+7юз3680100 0.0 1031212
06:00+7зюз3785100 0.0 1031248
09:00+9з3477100 0.0 1031312
12:00+10зюз2375100 0.0 1031399
15:00+10з2380100 0.0 1030358
18:00+9юз118798 0.0 103115
21:00+8зюз119090 0.0 103110
2 октября, сб
сб200:00+7зсз019223 0.0 103110
03:00+6зсз119178 0.0 103210
06:00+6з119028 0.0 103210
09:00+10зсз227491 0.0 1033241
12:00+14зсз235517 0.0 10331150
15:00+15сз335450 0.0 10321253
18:00+10сз227310 0.0 103310
21:00+9сз11805 0.0 103410